FW2297 Weather Reports


Display with metric or nautical units.
time (UTC)temp
F
wind
direction
speed
MPH
gust
MPH
rain 1hr
in
rain 24hr
in
rain mn
in
humidity
%
barometer
mb
20260508005551 48 0 0.0 6.0 0.00 0.06 0.01 43 1006.8
20260508005052 48 0 0.0 8.0 0.00 0.06 0.01 43 1006.8
20260508004557 49 0 0.0 8.0 0.00 0.06 0.01 43 1006.7
20260508004052 49 0 0.0 8.0 0.00 0.06 0.01 42 1006.5
20260508003552 49 0 0.0 9.0 0.00 0.06 0.01 42 1006.6
20260508003053 49 0 0.0 9.0 0.00 0.06 0.01 42 1006.6
20260508002551 49 0 0.0 10.0 0.00 0.06 0.01 41 1006.6
20260508002051 50 0 1.0 10.0 0.00 0.06 0.01 41 1006.5
20260508001555 50 0 0.0 7.0 0.00 0.06 0.01 41 1006.4
20260508001048 50 0 0.0 14.0 0.00 0.06 0.01 40 1006.4
20260508000552 50 0 1.0 14.0 0.00 0.06 0.01 40 1006.4
20260508000053 51 0 1.0 14.0 0.00 0.06 0.01 39 1006.3
20260507235552 51 0 1.0 10.0 0.00 0.08 0.01 40 1006.2
20260507235051 51 0 0.0 8.0 0.00 0.08 0.01 39 1006.2
20260507234556 52 0 1.0 9.0 0.00 0.08 0.01 40 1006.0
20260507234052 52 0 0.0 9.0 0.00 0.08 0.01 39 1005.9
20260507233552 52 0 0.0 6.0 0.00 0.08 0.01 39 1006.0
20260507233053 52 0 0.0 6.0 0.00 0.08 0.01 38 1005.9
20260507232552 53 0 0.0 4.0 0.00 0.08 0.01 39 1005.8
20260507232051 53 0 0.0 12.0 0.00 0.08 0.01 38 1005.7
20260507231559 53 0 2.0 12.0 0.00 0.08 0.01 38 1005.7
20260507231055 53 333 1.0 9.0 0.00 0.08 0.01 37 1005.7
20260507230552 54 0 0.0 9.0 0.00 0.08 0.01 37 1005.5
20260507230058 54 0 1.0 9.0 0.00 0.08 0.01 36 1005.5
20260507225551 54 0 0.0 4.0 0.00 0.09 0.01 36 1005.4
20260507225049 54 0 0.0 7.0 0.00 0.09 0.01 36 1005.3
20260507224556 54 0 0.0 7.0 0.00 0.09 0.01 35 1005.1
20260507224052 54 0 0.0 13.0 0.00 0.09 0.01 36 1005.1
20260507223553 55 0 0.0 14.0 0.00 0.09 0.01 35 1005.0
20260507223057 55 0 2.0 14.0 0.00 0.09 0.01 34 1004.8
20260507222547 55 0 1.0 14.0 0.00 0.09 0.01 34 1004.7
20260507222051 56 0 0.0 17.0 0.00 0.09 0.01 34 1004.8
20260507221555 56 0 4.0 17.0 0.00 0.09 0.01 34 1004.9
20260507221052 56 242 3.0 15.0 0.00 0.09 0.01 32 1004.6
20260507220553 56 240 4.0 18.0 0.00 0.09 0.01 32 1004.9
20260507220059 57 247 7.0 18.0 0.00 0.09 0.01 32 1004.7
20260507215555 56 353 0.0 10.0 0.00 0.16 0.01 33 1004.6
20260507215051 56 0 0.0 11.0 0.00 0.16 0.01 34 1004.7
20260507214558 55 0 0.0 18.0 0.00 0.16 0.01 34 1004.8
20260507214048 56 240 4.0 18.0 0.00 0.16 0.01 33 1004.7
20260507213551 56 259 5.0 17.0 0.00 0.16 0.01 33 1004.7
20260507213059 56 0 1.0 11.0 0.00 0.16 0.01 35 1004.5
20260507212550 55 0 1.0 14.0 0.00 0.16 0.01 34 1004.7
20260507212051 56 320 1.0 14.0 0.00 0.16 0.01 34 1004.8
20260507211609 56 283 5.0 12.0 0.00 0.16 0.01 32 1004.7
20260507211050 57 0 0.0 13.0 0.00 0.16 0.01 33 1004.7
20260507210549 57 283 1.0 13.0 0.00 0.16 0.01 32 1004.9
20260507210056 58 318 1.0 16.0 0.00 0.16 0.01 31 1004.9
20260507205552 58 0 2.0 16.0 0.00 0.25 0.01 32 1004.8
20260507205053 59 0 5.0 17.0 0.00 0.25 0.01 31 1004.7
20260507204554 59 0 2.0 17.0 0.00 0.25 0.01 31 1004.7
20260507204051 59 295 7.0 17.0 0.00 0.25 0.01 31 1004.8
20260507203551 59 0 4.0 13.0 0.00 0.25 0.01 32 1004.7
20260507203057 59 286 1.0 12.0 0.00 0.25 0.01 30 1004.5
20260507202548 59 260 1.0 14.0 0.00 0.25 0.01 34 1004.7
20260507202050 59 263 3.0 14.0 0.00 0.25 0.01 32 1004.7
20260507201603 59 255 0.0 15.0 0.00 0.25 0.01 35 1004.7
20260507201048 58 255 2.0 15.0 0.00 0.25 0.01 33 1004.7
20260507200551 58 322 0.0 13.0 0.00 0.25 0.01 33 1004.8
20260507200057 58 304 3.0 13.0 0.00 0.25 0.01 32 1004.9
20260507195551 58 0 1.0 17.0 0.00 0.31 0.01 33 1004.7
20260507195051 58 248 5.0 17.0 0.00 0.31 0.01 35 1004.8
20260507194553 57 0 3.0 17.0 0.00 0.31 0.01 36 1004.8
20260507194050 56 285 2.0 12.0 0.00 0.31 0.01 37 1004.8
20260507193550 55 328 1.0 12.0 0.00 0.31 0.01 37 1004.9
20260507193056 56 331 2.0 12.0 0.00 0.31 0.01 36 1004.9
20260507192552 56 0 0.0 12.0 0.00 0.31 0.01 37 1005.0
20260507192051 56 0 1.0 13.0 0.00 0.31 0.01 38 1005.0
20260507191556 57 0 4.0 15.0 0.00 0.31 0.01 37 1005.1
20260507191052 57 342 2.0 15.0 0.00 0.31 0.01 38 1005.1
20260507190551 57 0 0.0 13.0 0.00 0.31 0.01 41 1005.2
20260507190054 57 0 0.0 13.0 0.00 0.31 0.01 40 1005.3
20260507185551 57 286 0.0 14.0 0.00 0.36 0.01 38 1005.2
20260507185048 57 0 1.0 14.0 0.00 0.36 0.01 38 1005.2
20260507184553 58 0 2.0 14.0 0.00 0.36 0.01 35 1005.2
20260507184054 59 321 3.0 13.0 0.00 0.36 0.01 37 1005.2
20260507183551 58 0 2.0 13.0 0.00 0.36 0.01 36 1005.3
20260507183053 58 258 0.0 17.0 0.00 0.36 0.01 42 1005.4
20260507182554 56 0 1.0 17.0 0.00 0.36 0.01 39 1005.2
20260507182051 55 297 6.0 17.0 0.00 0.36 0.01 39 1005.4
20260507181553 55 0 3.0 16.0 0.00 0.36 0.01 39 1005.4
20260507181050 56 243 5.0 16.0 0.00 0.36 0.01 37 1005.5
20260507180552 57 0 2.0 14.0 0.00 0.36 0.01 38 1005.5
20260507180055 58 0 1.0 13.0 0.00 0.36 0.01 36 1005.4
20260507175551 59 0 1.0 13.0 0.00 0.45 0.01 36 1005.6
20260507175052 58 0 5.0 19.0 0.00 0.45 0.01 40 1005.5
20260507174604 58 0 8.0 19.0 0.00 0.45 0.01 40 1005.4
20260507174048 58 276 7.0 19.0 0.00 0.45 0.01 38 1005.4
20260507173551 58 0 5.0 18.0 0.00 0.45 0.01 39 1005.4
20260507173053 58 249 6.0 18.0 0.00 0.45 0.01 38 1005.4
20260507172552 58 0 5.0 15.0 0.00 0.45 0.01 38 1005.6
20260507172047 57 253 6.0 15.0 0.00 0.45 0.01 39 1005.5
20260507171602 58 0 3.0 14.0 0.00 0.45 0.01 40 1005.7
20260507171051 57 0 4.0 14.0 0.00 0.45 0.01 39 1005.9
20260507170552 57 278 4.0 16.0 0.00 0.45 0.01 43 1005.7
20260507170055 57 0 5.0 16.0 0.00 0.45 0.01 40 1005.8
20260507165551 57 257 2.0 16.0 0.00 0.47 0.01 41 1005.9
20260507165052 56 0 4.0 16.0 0.00 0.47 0.01 43 1005.9
20260507164556 56 0 1.0 15.0 0.00 0.47 0.01 41 1005.9
20260507164051 56 0 4.0 15.0 0.00 0.47 0.01 43 1006.1
20260507163550 56 0 0.0 17.0 0.00 0.47 0.01 47 1006.0
20260507163057 55 0 1.0 17.0 0.00 0.47 0.01 50 1006.2
20260507162548 55 0 5.0 17.0 0.00 0.47 0.01 48 1006.2
20260507162052 55 0 1.0 12.0 0.00 0.47 0.01 54 1006.3
20260507161555 55 289 0.0 13.0 0.00 0.47 0.01 51 1006.3
20260507161051 54 311 2.0 13.0 0.00 0.47 0.01 52 1006.7
20260507160557 53 0 1.0 10.0 0.00 0.47 0.01 57 1006.8
20260507160056 52 263 0.0 8.0 0.00 0.47 0.01 61 1006.8
20260507155549 51 0 0.0 13.0 0.00 0.47 0.01 60 1006.9
20260507155050 52 0 0.0 13.0 0.00 0.47 0.01 57 1006.9
20260507154553 52 304 1.0 13.0 0.00 0.47 0.01 58 1006.9
20260507154051 53 0 0.0 8.0 0.00 0.47 0.01 56 1006.8
20260507153550 53 0 0.0 5.0 0.00 0.47 0.01 61 1006.9
20260507153054 52 0 0.0 4.0 0.00 0.47 0.01 68 1006.9
20260507152550 51 0 0.0 4.0 0.00 0.47 0.01 73 1006.8
20260507152048 49 0 0.0 4.0 0.00 0.47 0.01 76 1007.0
20260507151554 49 0 0.0 12.0 0.00 0.47 0.01 74 1007.1
20260507151048 49 0 0.0 12.0 0.00 0.47 0.01 71 1007.1
20260507150548 50 0 1.0 12.0 0.00 0.47 0.01 68 1007.3
20260507150100 50 0 0.0 14.0 0.00 0.47 0.01 66 1007.1
20260507145557 50 293 2.0 14.0 0.00 0.47 0.01 66 1007.0
20260507145051 51 0 0.0 4.0 0.00 0.47 0.01 67 1007.0
20260507144615 51 0 0.0 3.0 0.00 0.47 0.01 66 1007.0
20260507144054 51 0 0.0 2.0 0.00 0.47 0.01 67 1007.1
20260507143552 51 0 0.0 1.0 0.00 0.47 0.01 66 1007.0
20260507143104 50 0 0.0 3.0 0.00 0.47 0.01 71 1006.9
20260507142551 49 0 0.0 3.0 0.00 0.47 0.01 71 1007.1
20260507142055 49 0 0.0 0.0 0.00 0.47 0.01 74 1007.1
20260507141622 49 0 0.0 0.0 0.00 0.47 0.01 73 1007.0
20260507141051 49 0 0.0 0.0 0.00 0.47 0.01 74 1006.9
20260507140552 49 0 0.0 1.0 0.00 0.47 0.01 76 1007.1
20260507140058 48 0 0.0 1.0 0.00 0.47 0.01 75 1007.1
20260507135553 48 0 0.0 1.0 0.00 0.47 0.01 76 1007.0
20260507135052 48 0 0.0 1.0 0.00 0.47 0.01 77 1007.0
20260507134555 48 0 0.0 3.0 0.00 0.47 0.01 76 1007.0
20260507134052 48 0 0.0 5.0 0.00 0.47 0.01 76 1007.1
20260507133552 48 0 0.0 5.0 0.00 0.47 0.01 77 1007.2
20260507133059 48 321 0.0 1.0 0.00 0.47 0.01 77 1007.2
20260507132552 48 0 0.0 5.0 0.00 0.47 0.01 78 1007.3
20260507132053 48 0 0.0 5.0 0.00 0.47 0.01 78 1007.1
20260507131559 48 0 0.0 3.0 0.00 0.47 0.01 79 1007.4
20260507131052 48 0 0.0 3.0 0.00 0.47 0.01 78 1007.3
20260507130554 48 0 0.0 9.0 0.00 0.47 0.01 77 1007.5
20260507130110 48 0 1.0 9.0 0.00 0.47 0.01 77 1007.5
20260507125552 49 0 0.0 4.0 0.00 0.47 0.01 77 1007.4
20260507125049 49 0 0.0 4.0 0.00 0.47 0.01 74 1007.4
20260507124601 49 0 0.0 7.0 0.00 0.47 0.01 76 1007.3
20260507124052 49 0 0.0 7.0 0.00 0.47 0.01 77 1007.2
20260507123549 48 0 0.0 0.0 0.00 0.47 0.01 79 1007.2
20260507123058 48 0 0.0 3.0 0.00 0.47 0.01 78 1007.1
20260507122554 48 0 0.0 3.0 0.00 0.47 0.01 81 1007.1
20260507122052 47 0 0.0 0.0 0.00 0.47 0.01 80 1007.1
20260507121555 47 0 0.0 0.0 0.00 0.47 0.01 80 1007.0
20260507121052 47 0 0.0 0.0 0.00 0.47 0.01 81 1007.2
20260507120551 47 0 0.0 0.0 0.00 0.47 0.01 81 1007.3
20260507120057 47 0 0.0 3.0 0.00 0.47 0.01 83 1007.3
20260507115551 46 0 0.0 3.0 0.00 0.47 0.01 84 1007.4
20260507115052 46 0 0.0 3.0 0.00 0.47 0.01 85 1007.4
20260507114557 45 0 0.0 0.0 0.00 0.47 0.01 86 1007.4
20260507114052 45 0 0.0 0.0 0.00 0.47 0.01 86 1007.2
20260507113552 45 0 0.0 0.0 0.00 0.47 0.01 87 1007.4
20260507113105 44 0 0.0 3.0 0.00 0.47 0.01 89 1007.4
20260507112551 44 0 0.0 3.0 0.00 0.47 0.01 90 1007.3
20260507112051 43 0 0.0 2.0 0.00 0.47 0.01 91 1007.4
20260507111559 43 0 0.0 0.0 0.00 0.47 0.01 91 1007.3
20260507111051 42 0 0.0 0.0 0.00 0.47 0.01 92 1007.2
20260507110552 42 0 0.0 0.0 0.00 0.47 0.01 92 1007.3
20260507105551 41 0 0.0 0.0 0.00 0.47 0.01 93 1007.2
20260507105056 40 0 0.0 0.0 0.00 0.47 0.01 92 1007.4
20260507104600 40 0 0.0 0.0 0.00 0.47 0.01 92 1007.4
20260507104052 40 0 0.0 0.0 0.00 0.47 0.01 92 1007.1
20260507103551 40 0 0.0 0.0 0.00 0.47 0.01 92 1007.2
20260507103104 40 0 0.0 0.0 0.00 0.47 0.01 92 1006.8
20260507102555 40 0 0.0 0.0 0.00 0.47 0.01 91 1006.8
20260507102052 40 0 0.0 0.0 0.00 0.47 0.01 91 1006.9
20260507101556 40 0 0.0 0.0 0.00 0.47 0.01 91 1007.1
20260507101051 41 0 0.0 0.0 0.00 0.47 0.01 90 1007.1
20260507100551 41 0 0.0 2.0 0.00 0.47 0.01 90 1007.1
20260507100055 41 0 0.0 2.0 0.00 0.47 0.01 90 1007.2
20260507095549 41 0 0.0 0.0 0.00 0.47 0.01 90 1007.0
20260507095052 41 0 0.0 0.0 0.00 0.47 0.01 90 1007.1
20260507094555 41 0 0.0 0.0 0.00 0.47 0.01 90 1007.1
20260507094051 41 0 0.0 0.0 0.00 0.47 0.01 90 1007.0
20260507093551 42 0 0.0 0.0 0.00 0.47 0.01 90 1007.3
20260507093059 42 0 0.0 0.0 0.00 0.47 0.01 90 1007.4
20260507092551 42 0 0.0 0.0 0.00 0.47 0.01 91 1007.4
20260507092051 42 0 0.0 0.0 0.00 0.47 0.01 91 1007.1
20260507091600 42 0 0.0 0.0 0.00 0.47 0.01 91 1007.0
20260507091049 42 0 0.0 5.0 0.00 0.47 0.01 91 1007.1
20260507090550 42 0 0.0 5.0 0.00 0.47 0.01 91 1007.0
20260507090057 42 0 0.0 5.0 0.00 0.47 0.01 91 1007.0
20260507085552 42 0 0.0 0.0 0.00 0.47 0.01 92 1007.0
20260507085051 42 0 0.0 0.0 0.00 0.47 0.01 92 1007.3
20260507084554 42 0 0.0 0.0 0.00 0.47 0.01 92 1007.2
20260507084051 42 0 0.0 0.0 0.00 0.47 0.01 91 1006.9
20260507083552 42 0 0.0 0.0 0.00 0.47 0.01 91 1006.9
20260507083055 42 0 0.0 0.0 0.00 0.47 0.01 92 1006.8
20260507082555 42 0 0.0 0.0 0.00 0.47 0.01 91 1006.7
20260507082051 42 0 0.0 0.0 0.00 0.47 0.01 91 1006.8
20260507081557 43 0 0.0 0.0 0.00 0.47 0.01 91 1007.0
20260507081051 43 0 0.0 0.0 0.00 0.47 0.01 91 1006.8
20260507080554 43 0 0.0 0.0 0.00 0.47 0.01 90 1006.9
20260507080052 43 0 0.0 0.0 0.00 0.47 0.01 90 1006.8
20260507075552 43 0 0.0 0.0 0.00 0.47 0.01 90 1006.9
20260507075052 43 0 0.0 0.0 0.00 0.47 0.01 90 1007.0
20260507074553 43 0 0.0 0.0 0.00 0.47 0.01 90 1006.7
20260507074054 43 0 0.0 0.0 0.00 0.47 0.01 90 1006.5
20260507073551 43 0 0.0 0.0 0.00 0.47 0.01 90 1006.4
20260507073101 44 0 0.0 0.0 0.00 0.47 0.01 90 1006.1
20260507072551 44 0 0.0 0.0 0.00 0.47 0.01 90 1006.0
20260507072051 44 0 0.0 1.0 0.00 0.47 0.01 90 1006.1
20260507071556 44 0 0.0 4.0 0.01 0.47 0.01 91 1006.1
20260507071051 44 0 0.0 4.0 0.01 0.47 0.01 90 1006.1
20260507070552 44 0 0.0 4.0 0.01 0.47 0.01 91 1006.1
20260507065552 44 0 0.0 2.0 0.01 0.47 0.01 91 1006.3
20260507065052 44 0 0.0 2.0 0.01 0.47 0.01 91 1006.4
20260507064555 44 0 0.0 2.0 0.01 0.47 0.01 91 1006.4
20260507064052 44 0 0.0 5.0 0.01 0.47 0.01 91 1006.0
20260507063552 44 0 0.0 5.0 0.01 0.47 0.01 91 1006.3
20260507063056 44 0 0.0 10.0 0.01 0.47 0.01 91 1006.5
20260507062552 44 0 0.0 10.0 0.01 0.47 0.01 92 1006.2
20260507062052 44 0 0.0 5.0 0.01 0.47 0.01 92 1006.0
20260507061555 44 0 0.0 3.0 0.00 0.46 0.00 92 1006.1
20260507061052 44 0 0.0 3.0 0.00 0.46 0.00 92 1006.2
20260507060550 44 0 0.0 1.0 0.00 0.46 0.00 93 1006.3
20260507060058 44 0 0.0 0.0 0.00 0.46 0.00 93 1006.4
20260507055552 44 0 0.0 0.0 0.00 0.46 0.00 93 1006.6
20260507055052 44 0 0.0 0.0 0.00 0.46 0.00 93 1006.5
20260507054601 44 0 0.0 0.0 0.00 0.46 0.00 93 1006.4
20260507054050 44 0 0.0 0.0 0.00 0.46 0.00 93 1006.3
20260507053551 44 0 0.0 0.0 0.00 0.46 0.00 93 1006.3
20260507053058 44 0 0.0 0.0 0.00 0.46 0.00 93 1006.2
20260507052550 44 0 0.0 1.0 0.00 0.46 0.00 93 1006.5
20260507052050 44 0 0.0 1.0 0.00 0.46 0.00 93 1006.5
20260507051601 44 0 0.0 1.0 0.00 0.46 0.00 93 1006.5
20260507051050 44 0 0.0 0.0 0.00 0.46 0.00 93 1006.4
20260507050551 44 0 0.0 3.0 0.00 0.46 0.00 93 1006.6
20260507050057 45 0 0.0 3.0 0.00 0.46 0.00 93 1006.1
20260507045554 45 0 0.0 0.0 0.00 0.46 0.00 93 1006.3
20260507045051 45 0 0.0 0.0 0.00 0.46 0.00 93 1006.2
20260507044600 45 0 0.0 0.0 0.00 0.46 0.00 93 1006.1
20260507044051 45 0 0.0 0.0 0.00 0.46 0.00 93 1006.1
20260507043551 45 0 0.0 0.0 0.00 0.46 0.00 93 1006.2
20260507043056 45 0 0.0 0.0 0.00 0.46 0.00 93 1006.0
20260507042552 45 0 0.0 0.0 0.00 0.46 0.00 93 1005.8
20260507042050 45 0 0.0 4.0 0.00 0.46 0.00 93 1005.8
20260507041551 45 0 0.0 4.0 0.00 0.46 0.00 93 1005.9
20260507041050 45 0 0.0 4.0 0.00 0.46 0.00 93 1005.7
20260507040550 45 0 0.0 4.0 0.01 0.46 0.00 93 1005.8
20260507040058 45 0 0.0 5.0 0.01 0.46 0.00 93 1006.0
20260507035550 45 0 0.0 5.0 0.01 0.46 0.46 93 1006.0
20260507035051 45 0 0.0 5.0 0.01 0.46 0.46 93 1006.2
20260507034608 45 0 0.0 6.0 0.01 0.46 0.46 93 1006.2
20260507034050 45 0 0.0 6.0 0.01 0.46 0.46 93 1006.4
20260507033554 45 0 1.0 6.0 0.01 0.46 0.46 93 1006.4
20260507033054 45 0 0.0 4.0 0.01 0.46 0.46 93 1006.2
20260507032555 45 309 0.0 1.0 0.02 0.46 0.46 93 1006.2
20260507032051 45 0 0.0 1.0 0.02 0.46 0.46 93 1006.1
20260507031551 45 0 0.0 1.0 0.02 0.46 0.46 93 1005.9
20260507031051 45 0 0.0 0.0 0.02 0.46 0.46 93 1005.8
20260507030553 46 0 0.0 0.0 0.01 0.45 0.45 93 1006.1
20260507025551 46 0 0.0 6.0 0.01 0.45 0.45 93 1006.1
20260507025052 46 0 0.0 6.0 0.01 0.45 0.45 93 1006.2
20260507024559 46 44 0.0 6.0 0.01 0.45 0.45 93 1006.1
20260507024050 46 0 0.0 4.0 0.01 0.45 0.45 93 1006.2
20260507023551 46 0 0.0 5.0 0.02 0.45 0.45 93 1006.2
20260507023053 46 304 0.0 5.0 0.02 0.45 0.45 93 1006.1
20260507022552 46 0 0.0 1.0 0.02 0.44 0.44 92 1006.0
20260507022052 46 0 0.0 1.0 0.02 0.44 0.44 92 1006.1
20260507021557 46 0 0.0 4.0 0.02 0.44 0.44 93 1006.2
20260507021051 46 0 0.0 4.0 0.02 0.44 0.44 93 1006.0
20260507020552 47 332 0.0 4.0 0.03 0.44 0.44 92 1006.0
20260507020104 47 0 0.0 9.0 0.03 0.44 0.44 92 1005.9
20260507015551 47 0 0.0 9.0 0.03 0.44 0.44 93 1006.0
20260507015050 47 0 0.0 6.0 0.03 0.44 0.44 93 1005.9
20260507014553 48 0 0.0 2.0 0.03 0.44 0.44 93 1006.1
20260507014051 48 0 0.0 4.0 0.03 0.44 0.44 93 1005.8
20260507013549 48 0 0.0 4.0 0.02 0.43 0.43 93 1006.0
20260507013101 48 0 0.0 4.0 0.02 0.43 0.43 93 1005.8
20260507012552 48 0 0.0 2.0 0.01 0.42 0.42 93 1005.7
20260507012052 48 0 0.0 7.0 0.01 0.42 0.42 93 1005.3
20260507011555 49 0 0.0 7.0 0.01 0.42 0.42 92 1005.4
20260507011052 49 0 0.0 2.0 0.00 0.41 0.41 93 1005.4
20260507010552 49 311 0.0 2.0 0.00 0.41 0.41 93 1005.2
20260507010054 49 0 0.0 3.0 0.00 0.41 0.41 93 1005.3